Simultaneous Nadir Overpasses (SNOs) Predictions

Prediction of SNOs between NOAA-20 and AQUA Satellite Orbit:

Table of predicted SNOs for the next 14.0 days since TLE Epoch: 10/15/2022
Index Date (NOAA-20) Time (NOAA-20) Lat,Lon (NOAA-20) SZA (NOAA-20 ) Date (AQUA) Time (AQUA) Lat,Lon (AQUA) SZA (AQUA ) Distance(km) Time Diff (sec)
1 10/16/2022 10:34:05 -79.10, 95.10 78.79 10/16/2022 10:34:57 -79.10, 95.12 78.83 0.62 52
2 10/16/2022 11:24:41 79.38, -95.44 100.79 10/16/2022 11:24:15 79.39, -95.38 100.80 1.32 26
3 10/19/2022 02:00:16 79.03, 43.12 102.23 10/19/2022 02:01:08 79.04, 43.23 102.17 2.59 52
4 10/19/2022 02:50:51 -79.40,-146.82 78.33 10/19/2022 02:50:25 -79.41,-146.77 78.32 1.04 26
5 10/21/2022 17:26:21 -79.23, -7.01 77.16 10/21/2022 17:27:13 -79.23, -7.14 77.18 2.76 52
6 10/21/2022 18:16:57 79.51, 162.47 102.42 10/21/2022 18:16:31 79.50, 162.38 102.46 1.88 26
7 10/24/2022 08:52:34 79.09, -59.60 103.95 10/24/2022 08:53:24 79.09, -59.50 103.90 2.21 50
8 10/24/2022 09:43:09 -79.46, 110.52 76.61 10/24/2022 09:42:41 -79.46, 110.54 76.59 0.29 28
9 10/27/2022 00:18:40 -79.21,-110.25 75.36 10/27/2022 00:19:28 -79.21,-110.29 75.39 0.77 48



Historial Predications of SNOs between NOAA-20 and AQUA
